CYZ9057 ZUCK-ZSNJ

Flight info

Callsign CYZ9057
Flight time 1h 39m
Altitude 33100
Route OLNER B213 WHA R343 HFE
Aircraft B77L/H-SDE2E3FGILRWXY/LB2

Departure

Time 2026-04-30 05:44
Airport Chongqing Jiangbei International Airport (ZUCK)

Arrival

Time 2026-04-30 07:24
Airport Nanjing Lukou International Airport (ZSNJ)
Time Latitude Longitude Altitude Speed Heading
2026-04-30 05:04 29.73911 106.65769 1380 ft 0 kts 107°
2026-04-30 05:34 29.73914 106.65756 1380 ft 2 kts 107°
2026-04-30 05:34 29.73919 106.65739 1380 ft 2 kts 107°
2026-04-30 05:34 29.73923 106.65723 1380 ft 2 kts 107°
2026-04-30 05:34 29.73928 106.65707 1380 ft 2 kts 127°
2026-04-30 05:35 29.73939 106.65696 1380 ft 2 kts 162°
2026-04-30 05:35 29.73954 106.65694 1380 ft 1 kts 193°
2026-04-30 05:35 29.73959 106.65696 1380 ft 1 kts 198°
2026-04-30 05:35 29.73961 106.65697 1380 ft 0 kts 198°
2026-04-30 05:39 29.73958 106.65696 1380 ft 0 kts 198°
2026-04-30 05:39 29.73948 106.65692 1380 ft 2 kts 198°
2026-04-30 05:39 29.73931 106.65685 1380 ft 3 kts 198°
2026-04-30 05:39 29.73906 106.65676 1380 ft 4 kts 197°
2026-04-30 05:40 29.73876 106.65659 1380 ft 5 kts 224°
2026-04-30 05:40 29.73848 106.65623 1380 ft 6 kts 224°
2026-04-30 05:40 29.73805 106.65592 1380 ft 7 kts 207°
2026-04-30 05:40 29.73753 106.65562 1380 ft 8 kts 206°
2026-04-30 05:41 29.73697 106.65531 1380 ft 9 kts 206°
2026-04-30 05:41 29.73634 106.65498 1380 ft 10 kts 205°
2026-04-30 05:41 29.73569 106.65461 1380 ft 10 kts 206°
2026-04-30 05:41 29.73515 106.65424 1380 ft 8 kts 235°
2026-04-30 05:42 29.73514 106.65357 1380 ft 7 kts 285°
2026-04-30 05:42 29.73530 106.65292 1380 ft 9 kts 287°
2026-04-30 05:42 29.73549 106.65219 1380 ft 10 kts 287°
2026-04-30 05:42 29.73556 106.65150 1380 ft 8 kts 246°
2026-04-30 05:43 29.73508 106.65115 1380 ft 7 kts 197°
2026-04-30 05:43 29.73502 106.65114 1380 ft 0 kts 197°
2026-04-30 05:43 29.73431 106.65089 1380 ft 37 kts 197°
2026-04-30 05:43 29.72901 106.64906 1379 ft 119 kts 196°
2026-04-30 05:44 29.71876 106.64558 1417 ft 184 kts 194°
2026-04-30 05:44 29.70537 106.64087 1921 ft 210 kts 195°
2026-04-30 05:44 29.69194 106.63623 3172 ft 199 kts 195°
2026-04-30 05:44 29.67868 106.63170 3766 ft 208 kts 195°
2026-04-30 05:45 29.66407 106.62669 4243 ft 225 kts 195°
2026-04-30 05:45 29.64868 106.62138 4775 ft 240 kts 195°
2026-04-30 05:45 29.63213 106.61568 5325 ft 255 kts 195°
2026-04-30 05:45 29.61466 106.60957 5944 ft 268 kts 199°
2026-04-30 05:46 29.59885 106.59854 6711 ft 275 kts 224°
2026-04-30 05:46 29.58822 106.58019 7490 ft 281 kts 249°
2026-04-30 05:46 29.58557 106.55818 8242 ft 286 kts 275°
2026-04-30 05:46 29.58992 106.53617 9041 ft 288 kts 286°
2026-04-30 05:47 29.59590 106.51415 9822 ft 290 kts 287°
2026-04-30 05:47 29.60190 106.49204 10437 ft 298 kts 286°
2026-04-30 05:47 29.60811 106.46867 10852 ft 315 kts 285°
2026-04-30 05:47 29.61461 106.44392 11302 ft 331 kts 286°
2026-04-30 05:48 29.62138 106.41811 11791 ft 347 kts 285°
2026-04-30 05:48 29.62858 106.39101 12301 ft 362 kts 288°
2026-04-30 05:48 29.63891 106.36379 12838 ft 379 kts 297°
2026-04-30 05:48 29.65366 106.33837 13458 ft 392 kts 308°
2026-04-30 05:49 29.67289 106.31583 14339 ft 398 kts 319°
2026-04-30 05:49 29.69568 106.29767 15374 ft 401 kts 329°
2026-04-30 05:49 29.72114 106.28438 16431 ft 404 kts 340°
2026-04-30 05:49 29.74810 106.27643 17399 ft 409 kts 349°
2026-04-30 05:50 29.77677 106.27402 18343 ft 414 kts 359°
2026-04-30 05:50 29.80542 106.27758 19206 ft 421 kts
2026-04-30 05:50 29.83364 106.28685 19989 ft 429 kts 16°
2026-04-30 05:50 29.86224 106.29815 20802 ft 435 kts 16°
2026-04-30 05:51 29.89036 106.31127 21559 ft 443 kts 23°
2026-04-30 05:51 29.91715 106.32993 22299 ft 453 kts 33°
2026-04-30 05:51 29.94106 106.35345 22954 ft 464 kts 42°
2026-04-30 05:51 29.96209 106.38229 23712 ft 472 kts 52°
2026-04-30 05:52 29.97892 106.41473 24414 ft 481 kts 61°
2026-04-30 05:52 29.99132 106.45071 25054 ft 491 kts 71°
2026-04-30 05:52 29.99957 106.48953 25804 ft 497 kts 76°
2026-04-30 05:52 30.00674 106.52862 26536 ft 503 kts 76°
2026-04-30 05:53 30.01383 106.56796 27218 ft 509 kts 76°
2026-04-30 05:53 30.02099 106.60796 27883 ft 516 kts 76°
2026-04-30 05:53 30.02830 106.64897 28564 ft 523 kts 76°
2026-04-30 05:53 30.03559 106.68999 29270 ft 528 kts 76°
2026-04-30 05:54 30.04295 106.73151 30098 ft 530 kts 76°
2026-04-30 05:54 30.05029 106.77309 31053 ft 530 kts 76°
2026-04-30 05:54 30.05751 106.81409 31981 ft 528 kts 76°
2026-04-30 05:54 30.06476 106.85532 32806 ft 528 kts 76°
2026-04-30 05:55 30.07209 106.89707 33131 ft 531 kts 76°
2026-04-30 05:55 30.07940 106.93890 33138 ft 529 kts 76°
2026-04-30 05:55 30.09377 107.02128 33138 ft 526 kts 76°
2026-04-30 05:56 30.10582 107.10458 33140 ft 529 kts 85°
2026-04-30 05:56 30.09986 107.18913 33146 ft 530 kts 103°
2026-04-30 05:57 30.07934 107.27067 33145 ft 531 kts 107°
2026-04-30 05:57 30.05774 107.35166 33146 ft 531 kts 107°
2026-04-30 05:58 30.03596 107.43301 33145 ft 532 kts 107°
2026-04-30 05:58 30.01409 107.51440 33140 ft 533 kts 107°
2026-04-30 05:59 29.99211 107.59596 33139 ft 534 kts 107°
2026-04-30 05:59 29.97008 107.67745 33136 ft 533 kts 108°
2026-04-30 06:00 29.94889 107.75916 33133 ft 534 kts 102°
2026-04-30 06:00 29.94323 107.84354 33154 ft 532 kts 84°
2026-04-30 06:01 29.95760 107.92660 33175 ft 526 kts 71°
2026-04-30 06:01 29.97803 108.00734 33187 ft 526 kts 70°
2026-04-30 06:02 29.99847 108.08820 33199 ft 527 kts 70°
2026-04-30 06:02 30.01886 108.16924 33206 ft 527 kts 70°
2026-04-30 06:03 30.03922 108.25050 33212 ft 527 kts 70°
2026-04-30 06:03 30.05947 108.33154 33224 ft 530 kts 70°
2026-04-30 06:04 30.07978 108.41305 33229 ft 529 kts 70°
2026-04-30 06:05 30.11022 108.53564 33238 ft 531 kts 70°
2026-04-30 06:05 30.13182 108.61639 33251 ft 530 kts 66°
2026-04-30 06:06 30.15572 108.69710 33231 ft 529 kts 67°
2026-04-30 06:06 30.17930 108.77734 33230 ft 530 kts 67°
2026-04-30 06:07 30.20296 108.85840 33244 ft 530 kts 67°
2026-04-30 06:07 30.22623 108.93863 33255 ft 529 kts 68°
2026-04-30 06:08 30.24664 109.02050 33249 ft 531 kts 70°
2026-04-30 06:08 30.26658 109.10262 33252 ft 529 kts 70°
2026-04-30 06:09 30.28643 109.18415 33241 ft 531 kts 70°
2026-04-30 06:09 30.30648 109.26654 33245 ft 532 kts 70°
2026-04-30 06:10 30.32648 109.34877 33243 ft 531 kts 69°
2026-04-30 06:10 30.34640 109.43055 33235 ft 529 kts 69°
2026-04-30 06:11 30.36644 109.51315 33237 ft 535 kts 69°
2026-04-30 06:11 30.38606 109.59491 33233 ft 529 kts 70°
2026-04-30 06:12 30.39990 109.67939 33230 ft 536 kts 76°
2026-04-30 06:12 30.41233 109.76421 33226 ft 537 kts 76°
2026-04-30 06:13 30.42472 109.84904 33236 ft 535 kts 75°
2026-04-30 06:13 30.43710 109.93394 33236 ft 536 kts 75°
2026-04-30 06:14 30.44946 110.01918 33244 ft 534 kts 75°
2026-04-30 06:14 30.46173 110.10403 33241 ft 536 kts 75°
2026-04-30 06:15 30.47392 110.18880 33245 ft 536 kts 75°
2026-04-30 06:15 30.48605 110.27347 33244 ft 535 kts 75°
2026-04-30 06:16 30.49817 110.35845 33247 ft 538 kts 75°
2026-04-30 06:16 30.51025 110.44378 33248 ft 533 kts 75°
2026-04-30 06:17 30.52224 110.52859 33245 ft 538 kts 75°
2026-04-30 06:17 30.53420 110.61382 33246 ft 536 kts 75°
2026-04-30 06:18 30.54613 110.69914 33229 ft 536 kts 75°
2026-04-30 06:18 30.55801 110.78450 33230 ft 538 kts 74°
2026-04-30 06:19 30.56983 110.86996 33220 ft 536 kts 75°
2026-04-30 06:19 30.58162 110.95544 33203 ft 541 kts 75°
2026-04-30 06:20 30.59339 111.04139 33202 ft 538 kts 75°
2026-04-30 06:20 30.60500 111.12663 33194 ft 538 kts 74°
2026-04-30 06:21 30.61664 111.21240 33177 ft 536 kts 74°
2026-04-30 06:21 30.62826 111.29829 33164 ft 544 kts 74°
2026-04-30 06:22 30.63980 111.38450 33160 ft 537 kts 74°
2026-04-30 06:22 30.65114 111.47031 33151 ft 540 kts 77°
2026-04-30 06:23 30.65660 111.55785 33159 ft 547 kts 80°
2026-04-30 06:23 30.66102 111.64515 33161 ft 545 kts 80°
2026-04-30 06:24 30.66549 111.73311 33145 ft 550 kts 81°
2026-04-30 06:24 30.66990 111.82087 33144 ft 546 kts 80°
2026-04-30 06:25 30.67432 111.90923 33148 ft 546 kts 81°
2026-04-30 06:25 30.67899 111.99735 33145 ft 547 kts 79°
2026-04-30 06:26 30.68516 112.08551 33146 ft 547 kts 79°
2026-04-30 06:26 30.69123 112.17309 33158 ft 547 kts 79°
2026-04-30 06:27 30.69724 112.26123 33163 ft 549 kts 79°
2026-04-30 06:27 30.70315 112.34950 33159 ft 546 kts 79°
2026-04-30 06:28 30.70896 112.43713 33167 ft 546 kts 79°
2026-04-30 06:28 30.71470 112.52486 33171 ft 547 kts 79°
2026-04-30 06:29 30.72040 112.61300 33169 ft 544 kts 80°
2026-04-30 06:29 30.72605 112.70099 33154 ft 548 kts 80°
2026-04-30 06:30 30.73161 112.78903 33156 ft 546 kts 80°
2026-04-30 06:30 30.73710 112.87670 33159 ft 544 kts 81°
2026-04-30 06:31 30.74259 112.96528 33157 ft 546 kts 81°
2026-04-30 06:31 30.74794 113.05267 33162 ft 544 kts 80°
2026-04-30 06:32 30.75325 113.14020 33169 ft 547 kts 81°
2026-04-30 06:32 30.75622 113.22841 33160 ft 547 kts 83°
2026-04-30 06:33 30.75830 113.31760 33172 ft 551 kts 83°
2026-04-30 06:33 30.76037 113.40603 33174 ft 548 kts 83°
2026-04-30 06:34 30.76248 113.49497 33176 ft 552 kts 82°
2026-04-30 06:34 30.76453 113.58353 33181 ft 548 kts 83°
2026-04-30 06:35 30.76658 113.67268 33167 ft 553 kts 83°
2026-04-30 06:35 30.76856 113.76147 33188 ft 552 kts 83°
2026-04-30 06:36 30.77048 113.85043 33170 ft 548 kts 83°
2026-04-30 06:36 30.77236 113.93925 33180 ft 554 kts 83°
2026-04-30 06:37 30.77420 114.02814 33186 ft 547 kts 82°
2026-04-30 06:37 30.77785 114.11758 33194 ft 551 kts 82°
2026-04-30 06:38 30.78573 114.20505 33201 ft 545 kts 70°
2026-04-30 06:38 30.80973 114.28746 33200 ft 531 kts 60°
2026-04-30 06:39 30.83586 114.36799 33195 ft 532 kts 61°
2026-04-30 06:39 30.86170 114.44837 33197 ft 531 kts 61°
2026-04-30 06:40 30.88788 114.52921 33199 ft 534 kts 60°
2026-04-30 06:40 30.91395 114.60966 33187 ft 528 kts 60°
2026-04-30 06:41 30.94012 114.69038 33174 ft 533 kts 62°
2026-04-30 06:41 30.96622 114.77125 33167 ft 532 kts 61°
2026-04-30 06:42 30.99210 114.85158 33169 ft 534 kts 62°
2026-04-30 06:42 31.01809 114.93244 33171 ft 538 kts 62°
2026-04-30 06:43 31.04420 115.01399 33164 ft 532 kts 62°
2026-04-30 06:43 31.07008 115.09491 33178 ft 539 kts 62°
2026-04-30 06:44 31.09593 115.17609 33182 ft 533 kts 62°
2026-04-30 06:44 31.12188 115.25783 33197 ft 537 kts 62°
2026-04-30 06:45 31.14780 115.33897 33207 ft 535 kts 61°
2026-04-30 06:45 31.17406 115.41986 33195 ft 536 kts 61°
2026-04-30 06:46 31.20033 115.50111 33022 ft 534 kts 61°
2026-04-30 06:46 31.21335 115.54154 32682 ft 527 kts 62°
2026-04-30 06:46 31.22608 115.58112 32333 ft 520 kts 62°
2026-04-30 06:46 31.23870 115.62040 31991 ft 513 kts 61°
2026-04-30 06:47 31.25109 115.65899 31649 ft 507 kts 61°
2026-04-30 06:47 31.26341 115.69736 31285 ft 505 kts 61°
2026-04-30 06:47 31.27572 115.73570 30920 ft 505 kts 61°
2026-04-30 06:47 31.28799 115.77402 30552 ft 502 kts 61°
2026-04-30 06:48 31.30017 115.81212 30191 ft 498 kts 61°
2026-04-30 06:48 31.31211 115.84959 29834 ft 494 kts 61°
2026-04-30 06:48 31.32413 115.88733 29455 ft 490 kts 60°
2026-04-30 06:48 31.33618 115.92440 29069 ft 486 kts 60°
2026-04-30 06:49 31.34814 115.96094 28680 ft 485 kts 60°
2026-04-30 06:49 31.36005 115.99740 28319 ft 482 kts 60°
2026-04-30 06:49 31.37203 116.03416 27936 ft 478 kts 60°
2026-04-30 06:49 31.38373 116.07008 27563 ft 474 kts 60°
2026-04-30 06:50 31.39530 116.10565 27186 ft 470 kts 60°
2026-04-30 06:50 31.40697 116.14159 26816 ft 469 kts 60°
2026-04-30 06:50 31.41850 116.17711 26435 ft 467 kts 61°
2026-04-30 06:50 31.42990 116.21229 26077 ft 463 kts 61°
2026-04-30 06:51 31.44132 116.24758 25715 ft 461 kts 60°
2026-04-30 06:51 31.45262 116.28256 25343 ft 458 kts 60°
2026-04-30 06:51 31.46375 116.31702 24986 ft 455 kts 61°
2026-04-30 06:51 31.47491 116.35164 24615 ft 452 kts 61°
2026-04-30 06:52 31.48587 116.38565 24258 ft 449 kts 61°
2026-04-30 06:52 31.49686 116.41982 23894 ft 444 kts 61°
2026-04-30 06:52 31.50759 116.45322 23589 ft 441 kts 61°
2026-04-30 06:52 31.51844 116.48695 23351 ft 442 kts 61°
2026-04-30 06:53 31.52921 116.52052 23130 ft 437 kts 61°
2026-04-30 06:53 31.53986 116.55379 22881 ft 434 kts 60°
2026-04-30 06:53 31.55036 116.58660 22652 ft 432 kts 61°
2026-04-30 06:53 31.56091 116.61954 22408 ft 430 kts 61°
2026-04-30 06:54 31.57142 116.65247 22215 ft 428 kts 62°
2026-04-30 06:54 31.58170 116.68468 21941 ft 426 kts 62°
2026-04-30 06:54 31.59212 116.71734 21701 ft 425 kts 62°
2026-04-30 06:54 31.60242 116.74968 21438 ft 421 kts 62°
2026-04-30 06:55 31.61260 116.78172 21185 ft 417 kts 62°
2026-04-30 06:55 31.62261 116.81319 20956 ft 416 kts 62°
2026-04-30 06:55 31.63269 116.84493 20690 ft 413 kts 62°
2026-04-30 06:55 31.64269 116.87648 20431 ft 409 kts 62°
2026-04-30 06:56 31.65248 116.90735 20175 ft 408 kts 62°
2026-04-30 06:56 31.66237 116.93858 19935 ft 406 kts 62°
2026-04-30 06:56 31.67212 116.96941 19703 ft 402 kts 62°
2026-04-30 06:56 31.68176 116.99998 19451 ft 396 kts 62°
2026-04-30 06:57 31.69110 117.02979 19190 ft 388 kts 63°
2026-04-30 06:57 31.70025 117.05941 18944 ft 380 kts 62°
2026-04-30 06:57 31.70910 117.08806 18701 ft 375 kts 62°
2026-04-30 06:57 31.71809 117.11706 18460 ft 379 kts 62°
2026-04-30 06:58 31.72704 117.14600 18207 ft 377 kts 63°
2026-04-30 06:58 31.73592 117.17484 17952 ft 372 kts 63°
2026-04-30 06:58 31.74473 117.20340 17710 ft 371 kts 63°
2026-04-30 06:58 31.75343 117.23161 17465 ft 369 kts 63°
2026-04-30 06:59 31.76220 117.26009 17213 ft 368 kts 63°
2026-04-30 06:59 31.76987 117.28849 16971 ft 371 kts 69°
2026-04-30 06:59 31.77458 117.31831 16716 ft 372 kts 77°
2026-04-30 06:59 31.77621 117.34901 16468 ft 374 kts 83°
2026-04-30 07:00 31.77687 117.37933 16220 ft 371 kts 83°
2026-04-30 07:00 31.77751 117.40964 15969 ft 369 kts 82°
2026-04-30 07:00 31.77815 117.43948 15724 ft 368 kts 83°
2026-04-30 07:00 31.77879 117.46922 15483 ft 366 kts 83°
2026-04-30 07:01 31.77943 117.49903 15240 ft 363 kts 83°
2026-04-30 07:01 31.78007 117.52889 14988 ft 363 kts 83°
2026-04-30 07:01 31.78069 117.55814 14879 ft 359 kts 83°
2026-04-30 07:01 31.78131 117.58743 14878 ft 362 kts 83°
2026-04-30 07:02 31.78193 117.61704 14881 ft 361 kts 83°
2026-04-30 07:02 31.78254 117.64635 14873 ft 363 kts 83°
2026-04-30 07:02 31.78315 117.67595 14873 ft 362 kts 84°
2026-04-30 07:02 31.78374 117.70537 14873 ft 361 kts 83°
2026-04-30 07:03 31.78433 117.73504 14870 ft 363 kts 83°
2026-04-30 07:03 31.78491 117.76451 14868 ft 363 kts 83°
2026-04-30 07:03 31.78549 117.79437 14869 ft 362 kts 83°
2026-04-30 07:03 31.78606 117.82388 14875 ft 362 kts 84°
2026-04-30 07:04 31.78662 117.85332 14867 ft 362 kts 83°
2026-04-30 07:04 31.78718 117.88302 14873 ft 361 kts 83°
2026-04-30 07:04 31.78772 117.91236 14861 ft 363 kts 83°
2026-04-30 07:04 31.78828 117.94226 14550 ft 366 kts 83°
2026-04-30 07:05 31.78931 118.00104 13947 ft 354 kts 83°
2026-04-30 07:05 31.78980 118.02950 13649 ft 348 kts 84°
2026-04-30 07:05 31.79030 118.05796 13349 ft 343 kts 83°
2026-04-30 07:06 31.79077 118.08557 13053 ft 338 kts 84°
2026-04-30 07:06 31.79130 118.11312 12752 ft 333 kts 83°
2026-04-30 07:06 31.79185 118.14005 12455 ft 328 kts 83°
2026-04-30 07:06 31.79239 118.16640 12161 ft 324 kts 83°
2026-04-30 07:07 31.79291 118.19280 11866 ft 320 kts 83°
2026-04-30 07:07 31.79342 118.21866 11569 ft 317 kts 84°
2026-04-30 07:07 31.79392 118.24458 11277 ft 313 kts 84°
2026-04-30 07:07 31.79440 118.26987 11009 ft 312 kts 84°
2026-04-30 07:08 31.79489 118.29547 10736 ft 311 kts 84°
2026-04-30 07:08 31.79597 118.32047 10466 ft 307 kts 79°
2026-04-30 07:08 31.79856 118.34517 10196 ft 304 kts 78°
2026-04-30 07:08 31.80116 118.36987 9926 ft 303 kts 78°
2026-04-30 07:09 31.80354 118.39434 9657 ft 302 kts 79°
2026-04-30 07:09 31.80584 118.41907 9386 ft 301 kts 79°
2026-04-30 07:09 31.80805 118.44312 9117 ft 298 kts 79°
2026-04-30 07:09 31.81027 118.46744 8845 ft 295 kts 79°
2026-04-30 07:10 31.81243 118.49120 8572 ft 293 kts 79°
2026-04-30 07:10 31.81458 118.51485 8291 ft 291 kts 80°
2026-04-30 07:10 31.81671 118.53828 8026 ft 290 kts 80°
2026-04-30 07:10 31.81885 118.56190 7757 ft 287 kts 80°
2026-04-30 07:11 31.82094 118.58507 7486 ft 285 kts 80°
2026-04-30 07:11 31.82303 118.60829 7206 ft 284 kts 81°
2026-04-30 07:11 31.82509 118.63125 6930 ft 282 kts 81°
2026-04-30 07:11 31.82713 118.65388 6646 ft 279 kts 82°
2026-04-30 07:12 31.82915 118.67651 6374 ft 277 kts 82°
2026-04-30 07:12 31.83116 118.69900 6082 ft 274 kts 82°
2026-04-30 07:12 31.83312 118.72098 5800 ft 271 kts 82°
2026-04-30 07:12 31.83509 118.74306 5514 ft 269 kts 82°
2026-04-30 07:13 31.83701 118.76467 5231 ft 266 kts 83°
2026-04-30 07:13 31.83893 118.78633 4944 ft 264 kts 83°
2026-04-30 07:13 31.84081 118.80758 4660 ft 262 kts 83°
2026-04-30 07:13 31.84268 118.82867 4379 ft 260 kts 83°
2026-04-30 07:14 31.84510 118.84980 4090 ft 257 kts 72°
2026-04-30 07:14 31.85248 118.86858 3887 ft 251 kts 58°
2026-04-30 07:14 31.86150 118.88600 3857 ft 254 kts 57°
2026-04-30 07:14 31.87092 118.90368 3856 ft 253 kts 56°
2026-04-30 07:15 31.88030 118.92128 3847 ft 253 kts 57°
2026-04-30 07:15 31.88958 118.93869 3853 ft 253 kts 57°
2026-04-30 07:15 31.89900 118.95641 3851 ft 253 kts 57°
2026-04-30 07:15 31.90835 118.97399 3850 ft 254 kts 57°
2026-04-30 07:16 31.91773 118.99164 3848 ft 254 kts 57°
2026-04-30 07:16 31.92709 119.00927 3850 ft 254 kts 57°
2026-04-30 07:16 31.93575 119.02728 3834 ft 252 kts 70°
2026-04-30 07:16 31.93744 119.04711 3727 ft 244 kts 99°
2026-04-30 07:17 31.93059 119.06511 3494 ft 240 kts 130°
2026-04-30 07:17 31.91832 119.07815 3294 ft 236 kts 144°
2026-04-30 07:17 31.89117 119.09877 2892 ft 229 kts 148°
2026-04-30 07:18 31.87735 119.10731 2719 ft 222 kts 165°
2026-04-30 07:18 31.86227 119.10737 2545 ft 213 kts 197°
2026-04-30 07:18 31.84987 119.09875 2374 ft 203 kts 225°
2026-04-30 07:18 31.84101 119.08633 2214 ft 196 kts 235°
2026-04-30 07:19 31.83347 119.07311 2056 ft 190 kts 238°
2026-04-30 07:19 31.82661 119.06025 1955 ft 181 kts 240°
2026-04-30 07:19 31.82026 119.04764 1952 ft 180 kts 240°
2026-04-30 07:19 31.81378 119.03530 1935 ft 169 kts 239°
2026-04-30 07:20 31.80767 119.02393 1945 ft 163 kts 239°
2026-04-30 07:20 31.80164 119.01271 1944 ft 162 kts 239°
2026-04-30 07:20 31.79558 119.00140 1949 ft 161 kts 239°
2026-04-30 07:20 31.78968 118.99038 1942 ft 158 kts 238°
2026-04-30 07:21 31.78406 118.97987 1952 ft 148 kts 238°
2026-04-30 07:21 31.77848 118.96942 1767 ft 146 kts 238°
2026-04-30 07:21 31.77312 118.95940 1577 ft 145 kts 238°
2026-04-30 07:21 31.76775 118.94939 1381 ft 144 kts 238°
2026-04-30 07:22 31.75713 118.92964 995 ft 142 kts 239°
2026-04-30 07:22 31.75199 118.91987 781 ft 142 kts 238°
2026-04-30 07:22 31.74667 118.91008 588 ft 140 kts 235°
2026-04-30 07:23 31.74137 118.90043 456 ft 143 kts 239°
2026-04-30 07:23 31.73629 118.89054 276 ft 142 kts 238°
2026-04-30 07:23 31.73115 118.88087 141 ft 141 kts 238°
2026-04-30 07:23 31.72593 118.87118 68 ft 134 kts 239°
2026-04-30 07:24 31.72175 118.86357 63 ft 86 kts 238°
2026-04-30 07:24 31.71981 118.85988 63 ft 21 kts 243°
2026-04-30 07:24 31.71938 118.85872 63 ft 11 kts 250°
2026-04-30 07:24 31.71920 118.85773 63 ft 12 kts 262°
2026-04-30 07:25 31.71913 118.85671 63 ft 11 kts 273°
2026-04-30 07:25 31.71966 118.85604 63 ft 12 kts
2026-04-30 07:25 31.72021 118.85679 63 ft 13 kts 62°
2026-04-30 07:25 31.72070 118.85777 63 ft 14 kts 58°
2026-04-30 07:26 31.72125 118.85883 63 ft 15 kts 58°
2026-04-30 07:26 31.72185 118.85993 63 ft 16 kts 58°
2026-04-30 07:26 31.72247 118.86110 63 ft 17 kts 58°
2026-04-30 07:26 31.72312 118.86231 63 ft 17 kts 58°
2026-04-30 07:27 31.72378 118.86356 63 ft 18 kts 58°
2026-04-30 07:27 31.72447 118.86485 63 ft 18 kts 58°
2026-04-30 07:27 31.72495 118.86575 63 ft 13 kts 58°
2026-04-30 07:27 31.72554 118.86635 63 ft 12 kts 359°
2026-04-30 07:28 31.72632 118.86589 63 ft 13 kts 328°
2026-04-30 07:28 31.72713 118.86531 63 ft 14 kts 328°
2026-04-30 07:28 31.72799 118.86468 63 ft 14 kts 328°
2026-04-30 07:28 31.72890 118.86401 63 ft 15 kts 328°
2026-04-30 07:29 31.72985 118.86331 63 ft 16 kts 328°
2026-04-30 07:29 31.73084 118.86259 63 ft 17 kts 328°
2026-04-30 07:29 31.73189 118.86182 63 ft 17 kts 327°
2026-04-30 07:29 31.73295 118.86105 63 ft 18 kts 328°
2026-04-30 07:30 31.73516 118.85943 63 ft 18 kts 328°
2026-04-30 07:30 31.73626 118.85863 63 ft 15 kts 328°
2026-04-30 07:30 31.73712 118.85800 63 ft 12 kts 328°
2026-04-30 07:31 31.73752 118.85746 63 ft 9 kts 268°
2026-04-30 07:31 31.73724 118.85671 63 ft 10 kts 239°
2026-04-30 07:31 31.73683 118.85592 63 ft 11 kts 238°
2026-04-30 07:31 31.73636 118.85505 63 ft 12 kts 238°
2026-04-30 07:32 31.73587 118.85413 63 ft 13 kts 238°
2026-04-30 07:32 31.73534 118.85313 63 ft 14 kts 238°
2026-04-30 07:32 31.73479 118.85210 63 ft 15 kts 238°
2026-04-30 07:32 31.73421 118.85101 63 ft 15 kts 238°
2026-04-30 07:33 31.73362 118.84991 63 ft 16 kts 238°
2026-04-30 07:33 31.73301 118.84877 63 ft 16 kts 238°
2026-04-30 07:33 31.73251 118.84782 63 ft 11 kts 238°
2026-04-30 07:33 31.73207 118.84731 63 ft 8 kts 186°
2026-04-30 07:34 31.73145 118.84753 63 ft 9 kts 175°
2026-04-30 07:34 31.73092 118.84702 63 ft 11 kts 238°
2026-04-30 07:34 31.73048 118.84622 63 ft 11 kts 233°
2026-04-30 07:34 31.72989 118.84610 63 ft 7 kts 155°
2026-04-30 07:35 31.72940 118.84645 63 ft 8 kts 135°
2026-04-30 07:35 31.72938 118.84712 63 ft 7 kts 64°
2026-04-30 07:35 31.72961 118.84756 63 ft 1 kts 57°
2026-04-30 07:35 31.72963 118.84759 63 ft 0 kts 57°